Dewpoint
25 24 22 23 20 19 18 18 17 14 15 12 13 13 8 8 7 6 4 6 7 5 5 4 7 6 4 3 4 5 11 16 20 27 28 32 39 46 51 53 57 61 62 66 66 66 66 66 65 65 65 65 65 65 65 66 66 66 64 65 65 65 66 65 65 65 65 65 67 68 67 66 68 68 68 67 67 68 67 68 69 69 70 69 68 68
23 24 23 22 21 20 18 18 19 15 15 12 14 14 10 7 4 6 5 3 6 8 4 8 4 7 7 7 5 7 8 8 18 22 27 38 40 46 49 51 54 60 62 66 66 66 66 65 66 66 65 66 65 65 66 66 65 66 65 65 64 64 65 65 65 65 64 65 65 66 65 66 67 67 67 66 67 68 68 69 69 71 71 70 68 67
21 22 22 23 22 21 20 18 18 16 15 11 12 13 10 7 5 6 5 4 5 3 2 4 5 5 8 7 6 8 6 11 17 22 33 37 37 42 45 49 54 57 61 64 64 65 65 66 67 66 66 66 66 65 66 66 66 66 65 65 65 64 64 64 64 65 64 65 65 66 66 66 65 67 67 66 66 68 68 69 69 71 71 69 67 67
19 19 22 21 21 21 19 18 17 16 17 15 11 11 9 7 5 4 6 4 5 6 2 6 6 7 9 11 11 11 7 8 9 13 23 30 35 41 45 49 53 57 62 63 63 63 63 65 66 66 66 66 66 66 66 66 66 66 65 65 65 64 65 65 64 65 66 66 66 67 67 68 67 66 67 68 67 68 69 69 69 70 70 68 67 66
17 18 22 19 20 19 19 19 18 18 18 15 10 9 8 8 6 4 4 6 4 4 3 2 9 8 7 7 8 12 11 5 5 7 13 26 35 41 47 49 54 57 61 63 63 63 63 64 65 65 66 66 66 66 66 66 66 65 66 65 65 64 64 64 65 66 66 66 67 67 67 68 68 67 67 66 66 67 67 67 68 68 69 67 67 67
13 15 19 20 20 19 18 18 17 15 13 12 12 10 9 9 7 4 6 5 7 8 4 5 6 8 10 6 5 10 13 12 6 10 18 25 35 39 44 48 51 57 60 62 63 63 63 63 64 65 66 66 66 66 67 67 66 66 65 66 66 67 65 63 65 66 65 65 64 65 64 65 64 64 66 64 64 65 66 65 67 67 67 67 68 68
11 15 17 19 19 19 19 17 17 15 13 14 13 13 10 9 8 3 7 5 6 5 4 4 4 13 8 6 8 11 10 12 13 15 15 23 34 35 41 45 51 55 58 61 64 64 64 63 64 65 65 66 66 66 67 67 67 67 66 65 66 65 64 64 64 64 65 65 64 65 65 64 64 63 64 65 65 65 66 66 67 67 68 67 70 70
14 16 19 20 20 20 17 18 17 15 13 11 13 14 11 10 7 4 3 4 5 6 8 5 1 3 6 8 10 8 12 11 13 12 16 15 26 32 42 46 51 55 59 62 63 64 65 64 63 63 65 66 66 67 67 68 68 65 64 64 65 65 64 64 65 64 65 65 64 64 64 63 62 62 64 66 67 67 66 66 67 67 69 69 70 70
17 15 18 19 21 18 16 17 17 16 12 11 13 14 9 7 7 5 4 4 4 7 10 9 6 6 6 14 12 11 10 11 10 13 15 13 20 32 43 46 48 54 59 62 63 64 65 64 63 63 65 66 66 67 68 67 66 66 66 66 65 64 64 64 65 64 64 64 64 64 63 62 62 64 64 65 65 65 66 67 69 67 68 70 70 69
15 15 18 19 18 17 16 18 16 16 13 11 14 13 10 8 10 7 5 3 6 13 11 7 5 5 4 11 13 13 10 10 12 15 14 15 21 29 39 43 45 51 56 60 63 64 64 65 64 64 65 65 67 68 68 68 66 67 66 65 65 65 64 64 64 64 65 65 65 66 65 63 63 64 64 64 64 65 66 68 69 67 67 68 69 70
16 18 19 18 17 16 17 17 17 16 14 12 12 11 11 12 12 12 11 8 12 12 10 3 3 1 1 4 8 15 13 11 11 15 16 17 18 25 36 40 44 49 54 59 61 62 64 66 65 63 64 65 66 68 67 67 66 66 65 64 64 65 64 65 65 65 66 66 67 66 65 64 64 64 65 63 65 65 68 67 67 67 66 67 69 70
18 17 15 17 19 18 17 17 17 17 14 14 11 10 11 13 14 16 15 17 14 11 9 2 3 4 3 4 4 15 15 10 14 14 17 19 14 18 31 36 44 47 54 59 61 61 64 65 64 63 63 64 66 67 67 66 65 65 65 65 64 65 65 65 64 65 65 66 66 66 67 66 67 66 65 65 65 67 68 68 67 65 67 67 68 69
17 16 14 15 22 18 17 17 18 16 14 14 10 8 13 11 17 12 12 12 9 9 8 3 4 6 3 11 13 10 12 9 14 11 15 15 13 20 22 32 39 46 51 58 60 61 64 63 63 62 61 63 64 65 66 65 65 65 65 64 64 64 65 66 65 65 66 66 66 65 65 65 64 66 67 66 66 66 67 67 67 67 65 66 66 69
16 16 14 15 17 20 18 16 16 14 14 14 10 9 9 8 10 12 9 13 10 9 9 8 7 6 8 7 9 14 19 15 15 17 16 16 23 24 22 32 42 50 55 59 62 62 63 63 62 62 61 61 63 65 65 65 65 65 65 65 64 64 65 65 66 65 65 65 65 65 64 64 64 66 68 67 67 68 67 67 67 66 65 65 67 66
14 14 16 15 15 18 17 16 16 15 13 13 11 6 10 10 11 12 6 10 9 8 8 6 7 9 6 9 9 13 15 16 13 11 17 20 20 25 23 31 44 52 55 56 61 61 63 62 62 61 61 62 63 64 65 65 65 65 65 65 65 65 65 65 65 65 64 64 65 64 65 67 66 67 68 68 67 67 67 67 66 66 67 67 66 66
13 13 15 17 16 16 15 16 18 15 13 13 12 9 8 10 12 8 11 10 12 11 12 11 10 11 9 16 15 13 9 11 12 13 18 22 26 33 39 42 41 43 47 54 59 60 61 61 61 61 61 62 63 63 64 64 65 65 65 65 65 64 65 65 65 64 65 65 65 64 65 67 67 66 68 68 68 67 68 67 66 67 68 67 67 68
11 14 15 17 15 15 14 16 17 17 16 15 12 11 8 9 7 16 19 22 21 14 11 13 12 11 12 8 11 13 14 10 10 13 17 20 21 31 34 35 39 42 45 52 56 58 60 60 60 60 60 61 62 64 64 65 65 65 65 65 65 65 65 65 65 65 65 65 64 66 67 66 67 66 66 67 67 68 69 69 68 68 67 66 67 66
12 14 16 16 11 16 14 15 16 17 15 14 13 11 10 12 9 16 9 13 10 9 12 13 8 6 4 7 9 12 14 12 15 17 17 26 26 30 35 40 42 46 50 53 56 58 59 60 59 59 60 61 63 64 64 64 65 65 65 65 65 64 64 64 65 65 65 65 65 65 66 66 66 65 66 67 66 67 68 68 68 68 66 65 67 66
11 13 15 15 14 15 16 14 15 16 16 14 12 13 11 14 14 13 12 11 9 9 8 12 8 6 1 12 10 15 15 19 22 22 25 29 34 34 39 44 48 51 54 57 58 58 59 59 59 59 60 61 63 64 64 64 65 65 65 65 65 63 63 63 63 63 64 64 64 64 65 65 65 65 65 67 67 68 68 67 68 65 66 65 65 65
17 14 12 14 14 15 14 14 15 15 17 16 15 12 12 15 16 14 14 14 10 7 10 7 6 13 6 9 13 14 17 22 23 30 35 37 39 42 45 51 53 56 57 57 58 58 58 58 58 59 61 62 63 64 64 64 64 65 64 62 64 64 63 63 63 64 63 64 64 65 66 66 65 65 65 66 67 65 66 66 65 65 65 65 64 64
18 23 11 10 12 15 13 15 12 14 16 16 15 14 13 20 12 10 17 9 7 8 6 9 9 10 15 8 10 13 20 23 25 31 37 42 49 52 55 56 56 57 58 58 58 57 58 58 58 59 62 62 63 63 64 64 64 65 64 64 64 63 63 63 64 64 63 63 64 64 64 65 65 64 65 65 65 64 65 65 65 64 64 64 64 64
18 18 14 11 10 12 13 15 14 13 14 14 15 15 12 14 13 11 13 8 8 6 9 5 8 15 14 6 8 10 39 33 32 46 52 53 54 55 57 57 57 58 58 58 58 58 57 58 58 60 62 63 63 64 64 64 64 64 63 63 64 63 63 63 63 63 63 63 63 64 64 64 65 64 65 64 65 65 65 65 65 64 63 63 63 63
24 21 17 12 10 11 11 14 14 14 16 15 14 14 11 16 15 12 10 11 7 6 6 8 7 15 34 34 22 30 38 39 45 45 51 50 54 55 56 57 57 58 58 58 58 58 57 58 58 60 62 63 63 63 64 64 64 64 64 63 64 63 63 63 63 63 63 63 63 63 64 64 64 64 64 64 64 64 64 64 65 63 63 63 63 63
24 22 16 10 11 11 11 13 15 14 15 15 14 15 12 12 14 12 13 16 10 12 5 8 9 15 36 39 41 42 42 45 50 49 50 53 55 57 57 57 56 56 57 57 57 57 57 58 59 61 62 62 62 63 64 63 63 64 63 63 63 63 64 64 63 63 63 63 63 63 64 63 64 64 64 63 64 64 64 64 63 62 63 63 63 63
21 21 12 12 12 11 12 12 12 13 13 15 16 17 14 12 13 16 14 23 12 11 7 4 1 11 36 44 43 41 39 41 46 50 52 53 56 57 57 57 56 56 56 56 57 57 58 58 59 59 60 61 62 62 63 63 63 63 63 63 62 62 63 63 62 62 62 63 63 63 63 63 64 64 64 63 63 63 64 63 63 63 63 63 63 61
19 21 16 11 12 11 11 11 11 13 14 16 16 14 12 10 16 18 15 15 10 18 13 6 6 24 31 42 43 41 40 45 50 52 55 56 55 56 57 57 56 55 56 56 57 58 58 58 59 60 61 61 62 62 62 63 62 62 62 62 63 63 64 63 63 62 62 62 62 62 62 63 63 63 63 63 63 63 63 63 62 62 62 62 61 61
25 24 20 16 14 13 15 14 14 14 14 12 12 13 13 14 13 19 18 11 9 15 17 16 21 24 29 33 39 46 48 49 50 52 53 55 57 57 58 57 56 56 56 56 57 58 58 60 60 60 62 62 62 62 62 62 62 62 62 63 63 62 62 63 63 62 62 62 62 61 62 62 63 64 63 63 63 62 61 61 61 61 61 62 61 60
26 20 24 24 19 13 14 14 13 12 14 13 12 13 12 14 17 21 14 10 17 12 5 19 24 23 26 36 42 48 52 52 53 53 55 56 57 57 57 57 54 56 56 56 56 57 58 59 60 61 61 62 61 62 62 62 62 62 62 62 61 62 63 63 62 62 62 62 62 61 61 62 63 62 63 62 62 61 61 61 60 60 60 61 60 59
26 21 24 25 21 13 15 16 13 12 12 13 15 17 16 14 19 22 23 22 21 12 12 32 27 24 27 37 44 50 53 53 53 54 55 56 56 56 56 56 55 55 55 55 56 57 58 59 60 61 61 62 62 62 62 62 62 63 62 62 61 62 63 62 62 61 61 61 61 61 61 61 62 62 61 60 60 61 60 59 59 59 59 59 58 58
29 23 24 23 23 22 18 15 13 12 14 14 16 14 16 18 20 21 23 24 24 24 31 28 30 22 41 42 47 52 53 53 52 53 53 54 55 54 55 55 55 54 55 56 56 57 58 59 61 61 62 62 61 62 62 62 62 62 62 63 61 63 62 62 62 61 61 61 61 61 60 60 60 60 60 60 60 60 59 58 58 58 58 57 57 57
29 24 30 29 23 24 24 17 16 16 17 18 18 15 16 18 19 21 23 25 27 28 26 25 26 26 47 48 49 52 53 53 52 52 53 53 53 54 55 55 55 55 55 56 57 57 58 60 61 61 61 61 61 61 62 62 62 63 62 62 61 62 62 62 61 61 61 61 60 60 60 60 60 60 59 59 58 58 58 57 57 57 57 56 56 57
31 27 28 29 22 25 28 21 18 18 19 20 20 20 20 21 21 21 20 24 26 25 23 25 23 22 42 46 48 52 52 52 53 53 53 54 54 53 53 54 55 54 55 56 57 57 58 59 60 61 61 62 62 62 62 62 62 62 62 61 61 61 62 62 61 60 60 60 60 60 59 59 59 59 59 59 57 57 57 57 56 56 56 56 57 57
30 29 24 22 20 23 25 22 19 20 21 20 24 27 28 23 22 21 33 36 42 37 29 20 18 37 45 48 50 52 51 52 52 53 53 54 54 54 53 54 54 54 55 56 57 57 58 59 60 60 62 62 61 62 62 62 62 62 61 61 60 62 61 61 61 60 60 60 60 59 59 59 59 58 58 58 57 57 56 55 55 55 56 56 56 56
35 29 26 28 23 23 23 22 21 18 17 19 41 41 41 33 30 31 33 42 43 41 40 42 41 45 47 49 50 52 52 53 54 54 55 55 55 55 55 55 55 55 56 57 57 58 59 60 61 61 62 62 62 62 63 63 62 62 62 62 61 61 61 61 61 60 59 59 59 59 59 59 58 58 57 57 56 55 55 54 54 56 56 56 56 55
35 32 28 29 22 22 22 22 18 18 21 40 41 40 40 39 38 40 40 41 42 44 44 43 43 46 48 49 50 51 53 53 54 54 55 55 56 56 56 56 56 56 57 58 59 60 60 61 62 62 62 62 61 62 63 63 63 63 63 63 62 61 61 61 60 60 59 59 59 59 58 58 58 57 56 55 55 54 54 54 55 55 55 55 55 54
32 30 28 26 22 23 19 19 17 23 38 41 40 42 42 41 40 38 41 43 44 44 45 45 46 46 49 50 51 52 53 54 54 55 55 55 56 57 57 56 57 58 58 59 59 60 60 61 61 62 62 62 62 62 62 62 62 62 62 62 62 62 61 60 60 59 59 59 58 58 58 58 57 57 56 55 54 54 54 54 54 54 55 55 54 54
39 35 31 21 26 18 18 18 29 37 37 39 40 41 40 38 38 33 27 40 46 46 47 46 46 47 50 51 52 53 53 54 53 54 55 55 56 57 57 58 58 59 59 60 60 60 61 61 61 63 63 63 63 63 62 62 63 62 62 62 61 61 60 60 60 58 59 58 58 58 58 57 57 56 55 54 54 53 54 53 53 54 54 54 53 52
37 36 30 27 27 27 28 29 31 30 28 34 39 42 43 44 44 44 40 39 46 47 48 47 47 48 49 52 52 53 54 50 50 52 55 55 55 56 57 57 58 59 60 60 61 62 61 61 61 62 62 62 63 63 63 63 63 62 61 60 61 60 59 59 59 59 58 58 58 58 58 57 56 55 54 54 53 53 53 53 54 54 54 53 52 51
39 37 35 28 25 24 25 24 25 26 30 37 40 42 43 43 44 44 41 36 45 47 48 47 47 48 48 50 53 53 51 42 47 51 55 55 54 55 56 57 57 58 59 60 61 62 61 61 61 62 62 63 64 64 63 63 62 61 61 60 60 59 59 59 58 59 58 58 58 57 57 56 56 55 54 53 53 53 53 53 53 53 55 53 52 51
33 29 30 25 24 26 25 24 25 31 31 38 42 42 41 43 45 45 28 32 45 47 48 48 48 48 48 49 50 49 47 43 48 52 54 54 54 55 55 55 56 56 57 58 59 61 61 61 61 61 61 61 62 64 63 63 61 61 59 60 60 59 59 59 58 58 58 58 57 57 56 55 55 55 54 53 54 54 55 54 53 53 54 52 50 50
29 27 29 27 25 28 28 27 29 33 38 42 42 43 42 45 39 28 25 38 45 47 48 49 49 49 48 48 49 46 49 50 52 53 55 55 55 54 55 55 55 55 56 56 57 55 59 60 61 61 61 61 62 62 62 61 62 61 60 60 60 59 59 59 59 58 58 58 57 56 55 55 54 55 56 57 57 54 53 53 53 52 53 52 50 49
29 30 27 29 25 25 24 27 30 33 39 43 43 43 44 41 25 32 42 46 47 47 48 50 50 50 50 49 49 50 51 52 53 54 54 54 54 54 54 55 55 55 56 56 56 57 59 59 59 59 60 62 62 62 63 62 61 60 60 60 60 60 60 59 59 58 58 58 57 56 56 55 55 56 55 55 53 52 52 53 52 52 51 51 50 49
32 31 27 28 27 27 28 26 25 26 36 45 45 43 46 36 40 45 47 48 48 48 49 50 51 51 51 50 51 51 52 53 53 53 53 54 54 54 54 55 55 55 56 56 56 56 57 57 57 58 58 59 60 61 63 62 61 60 60 60 60 61 60 61 60 59 59 59 58 56 56 56 55 56 55 54 53 52 52 52 52 51 51 50 49 48
39 28 27 30 33 27 27 28 32 39 43 46 45 40 44 45 47 47 48 47 48 48 49 48 50 51 52 51 51 51 52 53 53 53 53 53 54 54 54 54 55 55 55 55 55 55 56 56 56 56 57 58 58 59 60 61 60 60 60 60 58 59 58 58 58 57 56 56 56 56 55 54 54 54 54 54 53 52 53 52 50 50 49 49 51 49
40 38 38 32 39 37 35 38 44 45 46 46 47 47 48 48 48 49 48 48 48 48 49 48 49 50 51 51 51 52 51 53 53 53 53 54 54 54 54 54 54 54 54 55 55 55 55 55 56 55 56 56 57 58 58 59 58 57 55 55 57 57 57 56 56 55 55 55 54 53 53 53 54 54 53 53 53 52 51 50 49 49 50 49 48 47
40 42 42 42 40 43 43 44 45 46 46 45 46 47 46 46 46 47 47 46 47 48 49 49 49 50 50 51 50 52 52 52 53 53 53 53 53 53 53 54 54 54 54 54 55 54 54 55 55 55 55 55 56 56 57 57 57 55 54 55 56 57 56 55 54 54 54 54 53 53 53 53 52 52 51 51 52 52 52 50 49 51 50 52 50 50
39 40 41 39 41 38 36 42 41 43 43 43 43 44 45 44 44 45 46 45 46 48 49 50 50 50 51 51 50 50 51 52 52 53 53 53 53 53 53 53 54 54 54 54 54 54 54 54 54 54 54 54 54 54 55 56 55 54 54 54 56 56 55 54 54 53 53 53 53 53 52 52 51 51 50 50 51 51 50 50 48 48 47 47 46 46
38 42 38 39 40 36 38 43 43 44 43 43 42 42 42 43 43 44 47 46 45 46 49 49 50 50 50 51 51 50 50 51 51 52 52 53 53 53 53 53 53 53 54 54 55 54 54 54 54 54 53 53 53 54 54 54 54 54 54 54 55 54 54 53 53 53 52 52 52 51 51 51 44 47 49 49 49 49 50 50 49 47 46 46 46 46
40 42 33 39 40 41 40 43 44 43 41 42 43 43 43 43 43 44 44 45 46 44 46 49 50 50 51 50 51 51 50 51 52 52 52 52 53 53 53 53 53 53 54 54 54 54 54 54 53 54 53 53 53 54 54 54 54 54 54 54 54 54 53 53 51 52 52 51 51 50 50 49 49 49 49 50 49 49 50 50 49 49 49 48 46 47
40 38 40 40 37 37 39 41 43 37 37 40 42 43 42 43 43 43 42 42 44 44 46 47 49 50 50 51 51 51 51 51 51 52 51 51 53 53 53 53 53 53 53 54 54 54 54 54 54 53 52 52 53 53 53 53 53 54 54 54 54 54 53 51 52 51 51 50 50 49 49 49 49 49 49 48 46 44 42 35 37 45 52 45 38 37
39 39 39 35 34 36 42 42 44 43 42 42 42 43 44 43 42 42 41 42 43 45 45 46 47 48 49 49 50 51 51 52 51 51 51 51 52 53 53 53 53 53 53 53 53 53 53 53 53 52 52 51 52 52 52 52 52 53 53 53 53 52 51 51 50 50 50 49 49 48 48 48 48 48 47 46 46 44 44 44 41 35 35 36 36 36